Location: *
(45.1961°N, 1.9694°E)
Time: 23:26:00
(UTC+00:00)

Cosmos 1898 Rocket - Pass Details

Date: 25 August 2019
Orbit: 755 x 783 km, 74.0° (Epoch: 19 September)

Event Time Altitude Azimuth Distance (km) Brightness Sun altitude
Rises 19:26:40 0° 178° (S) 3,236 6.5 -8.1°
Reaches altitude 10° 19:29:09 10° 171° (S) 2,309 5.7 -8.5°
Maximum altitude 19:34:02 41° 103° (ESE) 1,114 3.9 -9.3°
Drops below altitude 10° 19:38:54 10° 35° (NE) 2,307 5.9 -10.0°
Sets 19:41:22 0° 28° (NNE) 3,233 6.7 -10.4°
